Weather History for Smithfield, NC

Change the Weather History Date:

Saturday, February 16, 2013

  Actual Average Record
Temperature  
Mean Temperature 38 °F -  
Max Temperature 44 °F 58 °F 81 °F (1989)
Min Temperature 32 °F 37 °F 15 °F (1991)
Degree Days  
Heating Degree Days 27    
Moisture  
Dew Point 33 °F    
Average Humidity 85    
Maximum Humidity 100    
Minimum Humidity 61    
Precipitation  
Precipitation 0.23 in - - ()
Sea Level Pressure  
Sea Level Pressure 29.89 in    
Wind  
Wind Speed 5 mph (North)    
Max Wind Speed 13 mph    
Max Gust Speed 23 mph    
Visibility 8 miles    
Events      
Averages and records for this station are not official NWS values.
T = Trace of Precipitation, MM = Missing Value Source: NWS Daily Summary

Daily Weather History Graph

Daily Weather History Graph

Search for Another Location

Airport:

Trip Planner

Search our weather history database for the weather conditions in past years. The results will help you decide how hot, cold, wet, or windy it might be!

Date:

Astronomy

Feb. 16, 2013 Rise Set
Actual Time 6:58 AM EST 5:56 PM EST
Civil Twilight 6:32 AM EST 6:22 PM EST
Nautical Twilight 6:03 AM EST 6:52 PM EST
Astronomical Twilight 5:33 AM EST 7:22 PM EST
Moon 10:25 AM EST No Moon Set
Length of Visible Light 11h 50m
Length of Day
10h 58m
Waxing Crescent, 39% of the Moon is Illuminated
Feb 16
Waxing Crescent
Feb 17
First Quarter
Feb 25
Full
Mar 4
Last Quarter
Mar 11
New

Hourly Weather History & Observations

Time (EST) Temp. Windchill Dew Point Humidity Pressure Visibility Wind Dir Wind Speed Gust Speed Precip Events Conditions
12:15 AM 33.8 °F 26.4 °F 33.8 °F 100% 29.96 in 10.0 mi NNW 9.2 mph - N/A   Scattered Clouds
12:35 AM 41.0 °F - 35.6 °F 81% 29.96 in 10.0 mi Calm Calm - N/A   Overcast
12:55 AM 44.6 °F 42.2 °F 33.8 °F 66% 29.96 in 10.0 mi NNW 4.6 mph - N/A   Mostly Cloudy
1:15 AM 44.6 °F 38.4 °F 33.8 °F 66% 29.96 in 10.0 mi North 12.7 mph 23.0 mph N/A   Overcast
1:35 AM 44.6 °F 40.7 °F 33.8 °F 66% 29.95 in 10.0 mi North 6.9 mph - N/A   Overcast
1:55 AM 44.6 °F 43.1 °F 33.8 °F 66% 29.95 in 10.0 mi North 3.5 mph - N/A   Overcast
2:15 AM 44.6 °F 41.4 °F 32.0 °F 61% 29.95 in 10.0 mi North 5.8 mph - N/A   Overcast
2:35 AM 44.6 °F 42.2 °F 32.0 °F 61% 29.94 in 10.0 mi North 4.6 mph - N/A   Overcast
2:55 AM 44.6 °F - 32.0 °F 61% 29.94 in 10.0 mi Calm Calm - N/A   Overcast
3:15 AM 44.6 °F 42.2 °F 32.0 °F 61% 29.94 in 10.0 mi North 4.6 mph - N/A   Overcast
3:35 AM 44.6 °F 43.1 °F 32.0 °F 61% 29.94 in 10.0 mi North 3.5 mph - N/A   Overcast
3:55 AM 42.8 °F 39.3 °F 32.0 °F 66% 29.94 in 10.0 mi North 5.8 mph - N/A   Overcast
4:15 AM 42.8 °F - 32.0 °F 66% 29.94 in 10.0 mi Calm Calm - N/A   Overcast
4:35 AM 42.8 °F 40.1 °F 32.0 °F 66% 29.93 in 10.0 mi North 4.6 mph - N/A   Overcast
4:55 AM 42.8 °F - 32.0 °F 66% 29.93 in 10.0 mi Calm Calm - N/A   Overcast
5:15 AM 42.8 °F 39.3 °F 33.8 °F 70% 29.92 in 10.0 mi North 5.8 mph - N/A   Overcast
5:35 AM 42.8 °F 39.3 °F 33.8 °F 70% 29.92 in 10.0 mi North 5.8 mph - N/A   Overcast
5:55 AM 42.8 °F 38.0 °F 35.6 °F 76% 29.91 in 10.0 mi NNE 8.1 mph - N/A   Overcast
6:15 AM 42.8 °F 38.0 °F 35.6 °F 76% 29.91 in 10.0 mi NNE 8.1 mph - N/A   Overcast
6:35 AM 41.0 °F 36.4 °F 33.8 °F 76% 29.90 in 10.0 mi NNE 6.9 mph - N/A   Overcast
6:55 AM 41.0 °F 36.4 °F 33.8 °F 76% 29.92 in 10.0 mi North 6.9 mph - N/A   Overcast
7:15 AM 41.0 °F 35.8 °F 33.8 °F 76% 29.91 in 10.0 mi NNE 8.1 mph - N/A   Overcast
7:35 AM 41.0 °F 36.4 °F 35.6 °F 81% 29.93 in 10.0 mi NNE 6.9 mph - N/A   Overcast
7:55 AM 41.0 °F 34.7 °F 35.6 °F 81% 29.93 in 10.0 mi NNE 10.4 mph - N/A   Overcast
8:15 AM 41.0 °F 35.2 °F 35.6 °F 81% 29.93 in 10.0 mi North 9.2 mph - N/A   Overcast
8:35 AM 42.8 °F 37.0 °F 33.8 °F 70% 29.93 in 10.0 mi NE 10.4 mph - N/A   Overcast
8:55 AM 42.8 °F 36.2 °F 33.8 °F 70% 29.93 in 10.0 mi NNE 12.7 mph 16.1 mph N/A   Overcast
9:15 AM 42.8 °F 36.6 °F 33.8 °F 70% 29.92 in 10.0 mi NE 11.5 mph - N/A   Overcast
9:35 AM 42.8 °F 37.0 °F 33.8 °F 70% 29.92 in 10.0 mi NNE 10.4 mph - N/A   Overcast
9:55 AM 42.8 °F 38.0 °F 33.8 °F 70% 29.93 in 10.0 mi North 8.1 mph - N/A   Overcast
10:15 AM 41.0 °F 35.2 °F 33.8 °F 76% 29.91 in 10.0 mi NNE 9.2 mph - N/A   Overcast
10:35 AM 41.0 °F 35.8 °F 35.6 °F 81% 29.90 in 10.0 mi NNE 8.1 mph - N/A   Overcast
12:35 PM 33.8 °F - 33.8 °F 100% 29.88 in 7.0 mi Calm Calm - 0.05 in   Overcast
1:15 PM 32.0 °F - 32.0 °F 100% 29.86 in 1.8 mi Calm Calm - N/A   Overcast
1:35 PM 32.0 °F - 32.0 °F 100% 29.85 in 1.8 mi Calm Calm - 0.02 in   Overcast
1:55 PM 32.0 °F - 32.0 °F 100% 29.84 in 1.2 mi Calm Calm - 0.03 in   Overcast
2:15 PM 32.0 °F - 32.0 °F 100% 29.84 in 1.0 mi Calm Calm - N/A   Overcast
2:35 PM 32.0 °F 28.7 °F 32.0 °F 100% 29.84 in 1.0 mi NNW 3.5 mph - N/A   Overcast
2:55 PM 32.0 °F 28.7 °F 32.0 °F 100% 29.83 in 0.8 mi NNW 3.5 mph - N/A   Overcast
3:15 PM 32.0 °F - 32.0 °F 100% 29.82 in 2.0 mi Calm Calm - 0.02 in   Overcast
3:35 PM 32.0 °F - 32.0 °F 100% 29.83 in 4.0 mi Calm Calm - 0.05 in   Overcast
3:55 PM 33.8 °F 27.7 °F 33.8 °F 100% 29.83 in 7.0 mi North 6.9 mph - 0.08 in   Overcast
4:15 PM 33.8 °F 29.6 °F 33.8 °F 100% 29.84 in 10.0 mi North 4.6 mph - 0.03 in   Overcast
4:35 PM 33.8 °F 29.6 °F 33.8 °F 100% 29.84 in 10.0 mi North 4.6 mph - 0.05 in   Overcast
4:55 PM 33.8 °F - 33.8 °F 100% 29.83 in 10.0 mi Calm Calm - 0.05 in   Overcast
5:15 PM 33.8 °F 30.8 °F 33.8 °F 100% 29.83 in 7.0 mi NNW 3.5 mph - N/A   Overcast
5:35 PM 33.8 °F 29.6 °F 33.8 °F 100% 29.82 in 7.0 mi North 4.6 mph - 0.01 in   Overcast
5:55 PM 33.8 °F 27.7 °F 33.8 °F 100% 29.82 in 10.0 mi North 6.9 mph - 0.01 in   Overcast
6:15 PM 33.8 °F 30.8 °F 33.8 °F 100% 29.82 in 10.0 mi North 3.5 mph - N/A   Overcast
6:35 PM 33.8 °F 29.6 °F 33.8 °F 100% 29.84 in 10.0 mi NNW 4.6 mph - N/A   Overcast
6:55 PM 33.8 °F 28.6 °F 33.8 °F 100% 29.84 in 7.0 mi NNW 5.8 mph - N/A   Overcast
7:15 PM 33.8 °F 29.6 °F 33.8 °F 100% 29.84 in 10.0 mi NNW 4.6 mph - N/A   Overcast
7:35 PM 33.8 °F 29.6 °F 33.8 °F 100% 29.85 in 10.0 mi NW 4.6 mph - N/A   Overcast
7:55 PM 33.8 °F 28.6 °F 33.8 °F 100% 29.85 in 10.0 mi NNW 5.8 mph - 0.01 in   Overcast
8:15 PM 33.8 °F 29.6 °F 33.8 °F 100% 29.86 in 10.0 mi NNW 4.6 mph - N/A   Overcast
8:35 PM 33.8 °F 30.8 °F 33.8 °F 100% 29.86 in 10.0 mi NNW 3.5 mph - N/A   Overcast
8:55 PM 33.8 °F - 33.8 °F 100% 29.86 in 10.0 mi Calm Calm - N/A   Overcast
9:15 PM 33.8 °F 30.8 °F 33.8 °F 100% 29.87 in 10.0 mi North 3.5 mph - N/A   Overcast
9:35 PM 33.8 °F 29.6 °F 32.0 °F 93% 29.87 in 10.0 mi NNW 4.6 mph - N/A   Overcast
9:55 PM 33.8 °F 28.6 °F 32.0 °F 93% 29.88 in 10.0 mi North 5.8 mph - N/A   Overcast
10:15 PM 33.8 °F 29.6 °F 32.0 °F 93% 29.88 in 10.0 mi NW 4.6 mph - N/A   Overcast
10:35 PM 33.8 °F 28.6 °F 32.0 °F 93% 29.89 in 7.0 mi North 5.8 mph - N/A   Overcast
10:55 PM 33.8 °F 27.7 °F 32.0 °F 93% 29.89 in 10.0 mi NNW 6.9 mph 18.4 mph N/A   Overcast
11:15 PM 33.8 °F 27.7 °F 32.0 °F 93% 29.89 in 7.0 mi NNW 6.9 mph - N/A   Overcast
11:35 PM 32.0 °F 26.4 °F 32.0 °F 100% 29.90 in 3.0 mi North 5.8 mph - N/A   Overcast
11:55 PM 32.0 °F 25.6 °F 32.0 °F 100% 29.91 in 2.5 mi NNW 6.9 mph - N/A   Overcast